Location: Huesca
(42.1318°N, 0.4078°W)
Time: 00:17:48
(UTC+02:00)

CUTE 1.7 + AOD 2 - Pass Details

Date: 03 May 2024
Orbit: 569 x 586 km, 97.8° (Epoch: 26 May)

Event Time Altitude Azimuth Distance (km) Brightness Sun altitude
Rises 04:33:07 0° 31° (NNE) 2,780 ? -22.0°
Reaches altitude 10° 04:35:57 10° 52° (NE) 1,876 ? -21.7°
Maximum altitude 04:38:34 16° 92° (E) 1,500 ? -21.3°
Drops below altitude 10° 04:41:09 10° 133° (SE) 1,868 ? -21.0°
Enters shadow 04:42:18 - 144° (SE) 2,198 ? -20.9°
